NOAA 16 DEB, 41069

Orbit data source: Space-Track

NOAA 16 DEB, 41069 is space debris in SSO originally from a launch on Thu, 21 Sep 2000 UTC launched from the Air Force Western Test Range (AFWTR). Debris objects in space refer to the collection of defunct objects orbiting the Earth. Examples of debris include non-operational satellites, rocket bodies, and fragments generated from explosions, collisions, or faulty payload assembly.

Loading next visibility...
Identifier
41069, 2000-055AC
Orbit
SSO
Country
Flag of USUS
Related business
Manufacturer
Unknown
Mission
Spacecraft
Bus & Motor
Unknown
Mass
Unknown
Launch date (UTC)
2000-09-21 (25 years ago)
Launch vehicle
Unknown
Launch site
Air Force Western Test Range (AFWTR)
Object type
Payload
Rocket body
Debris
Shape & HBR
Unknown
Radar Cross Section
Small (<0.1 m²)

Expand to show TLE details & history
Last TLE update: 1 day ago

TLE from 1 day ago
0 NOAA 16 DEB
1 41069U 00055AC  25242.02203849  .00001917  00000-0  56412-3 0  9992
2 41069  98.5882 347.6698 0109856 331.8679  27.6601 14.41430935510654
Epoch: 2025-08-30T00:31Z
TLE epoch observation values (Epoch: 2025-08-30T00:31:44.125Z)
Latitude
-0.00002°
Longitude
1.27364°
Altitude
687.502 km
Speed
7.549 km/s
True Right ascension
23h 10m 40s
True Declination
0° 00' 00"
Sunlit
Object was in full shadow at epoch
Visualization orbit readout
Latitude
Unknown
Longitude
Unknown
Altitude
Unknown
Speed
Unknown
Apparent Right ascension
Unknown
Apparent Declination
Unknown
Sunlit
N/A
Visualization observer readout
Local Sidereal Time
15:43:14
Azimuth
Unknown
Elevation
Unknown
Doppler factor
Unknown
Orbital elements
Apogee altitude
829.215 km
Perigee altitude
672.581 km
Semi-major axis
7,129.035 km
Eccentricity
0.01099
Inclination
98.5882°
RAAN
347.6698°
Arg. of periapsis
331.8679°
True anomaly
28.25167°
Mean anomaly
27.6601°
Eccentric anomaly
27.95516°
Mean motion
3.60576 °/min
Orbital period
99.84 mins
BSTAR
0.00056412
Loading maneuver chart data...
Computing Atmospheric mass density...
Loading historical data...
Loading historical data...
Loading historical data...
Loading historical data...
Loading historical data...
Loading historical data...
Loading historical data...

Documentation

Showing up to 5 results
|